(44) Nysa
ephemeris date magn radius delta ra dec elong phase
Today19 Apr 202511.42.333 AU3.335 AU01h57m+09°16'3.1°1.3°
Opposition23 Jan 20268.62.062 AU1.078 AU08h21m+18°24'179.0°0.5°
(44) Nysa - 2025-04-19
astro.vanbuitenen.nl


 
-1 year
-1 month
-1 day
Now
+1 day
+1 month
+1 year

The interactive orbit chart above shows the body's path through the solar system and its position at the given date. Green and blue lines are shown perpendicular to the ecliptic plane: Green if the path is above the ecliptic plane, blue if it is below. (Left-click and drag to rotate the view; Right-click and drag to move the view; Use scroll wheel to zoom in our out.)

The orbital elements of Nysa are:

            e (Eccentricity)                : 0.1496909
            a (Semimajor axis)              : 2.4222286
            i (Inclination)                 : 3.71221
            Ω (Longitude of ascending node) : 131.48659
            ω (Argument of perihelion)      : 344.12061
            M (Mean anomaly)                : 296.70957
            Epoch                           : 2025 May 05

            L (Longitude of perihelion)     : 115.63884
            B (Latitude of perihelion)      : -1.01505
            P (Orbital period in years)     : 3.77            
        

The light curve chart below shows the estimated development of the minor planet's magnitude.


The all-sky chart below shows the path of the minor planet over the same period as the light curve. The current position is marked yellow.





The following chart shows the path of the minor planet in the next few days. The field of view is optimized for (~10x50) binoculars and finderscopes. A more printer-friendly version of the same chart can be found below.




Ephemerides:
Date       Time       RA (2000)    DEC (2000)    delta   radius  elong  phase   PA    magn
2025-04-19 00:00 UT   01 57 22.5   +09 16 12     3.335    2.333    3.1    1.3   126   11.4 
2025-04-19 21:53 UT   01 59 04.2   +09 25 24     3.334    2.332    2.9    1.2   133   11.4 
2025-04-20 00:00 UT   01 59 14.1   +09 26 17     3.334    2.332    2.8    1.2   134   11.4 
2025-04-21 00:00 UT   02 01 05.9   +09 36 20     3.333    2.330    2.7    1.1   144   11.4 
2025-04-22 00:00 UT   02 02 57.9   +09 46 20     3.332    2.328    2.6    1.1   154   11.4 
2025-04-23 00:00 UT   02 04 50.2   +09 56 18     3.331    2.327    2.6    1.1   165   11.4 
2025-04-24 00:00 UT   02 06 42.7   +10 06 13     3.329    2.325    2.7    1.1   176   11.4 
2025-04-25 00:00 UT   02 08 35.5   +10 16 06     3.327    2.323    2.8    1.2   185   11.4 
2025-04-26 00:00 UT   02 10 28.4   +10 25 56     3.326    2.322    3.1    1.3   194   11.4 
2025-04-27 00:00 UT   02 12 21.6   +10 35 43     3.324    2.320    3.4    1.5   201   11.4 
2025-04-28 00:00 UT   02 14 15.0   +10 45 28     3.322    2.318    3.7    1.6   207   11.4 
2025-04-29 00:00 UT   02 16 08.7   +10 55 10     3.320    2.317    4.0    1.8   211   11.4 
2025-04-30 00:00 UT   02 18 02.6   +11 04 48     3.318    2.315    4.4    1.9   215   11.4 
2025-05-01 00:00 UT   02 19 56.6   +11 14 24     3.316    2.313    4.8    2.1   219   11.4 
2025-05-02 00:00 UT   02 21 50.9   +11 23 57     3.313    2.312    5.2    2.3   222   11.4 
2025-05-03 00:00 UT   02 23 45.5   +11 33 26     3.311    2.310    5.7    2.5   224   11.4 
2025-05-04 00:00 UT   02 25 40.2   +11 42 53     3.308    2.308    6.1    2.7   226   11.4 
2025-05-05 00:00 UT   02 27 35.1   +11 52 16     3.306    2.307    6.5    2.8   228   11.5 
2025-05-06 00:00 UT   02 29 30.3   +12 01 36     3.303    2.305    7.0    3.0   230   11.5 


    Terminology:
            
    delta:  distance between minor planet and earth in AU
    radius: distance between minor planet and sun in AU
    magn:   magnitude (brightness) estimate    
    ra:     right ascension in hours (24h = 360deg)
    dec:    declination in degrees
    elong:  elongation in degrees (angle sun-earth-minor planet)    
    phase:  phase angle in degrees (angle sun-minor planet-earth)        
    AU:     Astronomical Unit (mean distance between earth and sun: 149597870.7 km
    

Orbital elements provided by the MPC (Minor Planet Center).
Calculations by a modified version of AAPlus, a C# implementation of the AA+ project by PJ Naughter from the algorithms presented in the book "Astronomical Algorithms" by Jean Meeus.
NGC2000 dso catalog and star labels from VizieR as provided by the Strasbourg astronomical Data Center.
Tycho2 catalog from the ESO archive.